Weather in Rzhanitsa

Russia / Bryansk Oblast     53°25′53″N   33°54′53″E
temp.,
°C
wind,
m/s
gust,
m/s
humid.,
%
clouds,
%
prec.,
mm/h
press.,
hPa
HPBL,
m
28 september, tue
tue2800:00+5n269651 0.0 1025161
03:00+6n279499 0.0 1025248
06:00+7nne3796100 0.1 1026329
09:00+8nne389296 0.2 1026507
12:00+9ne4681100 0.3 1028722
15:00+9ene357784 0.4 1029767
18:00+8ene3782100 0.1 1031517
21:00+7ene398290 0.1 1032569
29 september, wed
wed2900:00+6ne278895 0.0 1033332
03:00+4ene269059 0.0 1034154
06:00+6ene367444 0.0 1035276
09:00+6ene36725 0.0 1036338
12:00+10e24535 0.0 10351066
15:00+11ene23485 0.0 10341206
18:00+8ne2268100 0.0 103414
21:00+6ene2276100 0.0 103520
30 september, thu
thu3000:00+5e1179100 0.0 103510
03:00+4ne118350 0.0 103610
06:00+3ne118589 0.0 103610
09:00+7ene12705 0.0 1036190
12:00+12e22555 0.0 1035834
15:00+13e12525 0.0 10341183
18:00+9e11736 0.0 103410
21:00+6ese23866 0.0 103560
1 october, fri
fri100:00+6se12885 0.0 103612
03:00+5sse11880 0.0 103610
06:00+4se11890 0.0 103610
09:00+7se12735 0.0 1036194
12:00+12sse22585 0.0 1036828
15:00+13s22545 0.0 10351091
18:00+9ssw11733 0.0 103410
21:00+7se11810 0.0 103510
2 october, sat
sat200:00+6sse11870 0.0 103510
03:00+5sse11911 0.0 103511
06:00+5sse11924 0.0 103410
09:00+8sse24734 0.0 1034180
12:00+13s34565 0.0 1033751
15:00+14s34535 0.0 10321176
18:00+10sse22745 0.0 103216
21:00+8se25835 0.0 103290